Regional Weather Roundup
Issued by NWS

Home | Current Version | Previous Version | Text Only | Print | Product List | Glossary On
Versions: 1 2 3 4 5 6 7 8 9 10 11 12 13 14 15 16 17 18 19 20 21 22 23 24 25 26 27 28 29 30 31 32 33 34 35 36 37 38 39 40 41 42 43 44 45 46 47 48 49 50
000
ASUS43 KDTX 201001
RWRMI
MICHIGAN HOURLY REGIONAL WEATHER ROUNDUP
NATIONAL WEATHER SERVICE DETROIT/PONTIAC MI
500 AM EST TUE FEB 20 2018

NOTE: "FAIR" INDICATES FEW OR NO CLOUDS BELOW 12,000 FEET WITH NO
SIGNIFICANT WEATHER AND/OR OBSTRUCTION TO VISIBILITY.

MIZ047>049-052>055-059>063-066>070-074>076-081>083-201100-
SOUTHEAST LOWER MICHIGAN

CITY           SKY/WX    TMP DP  RH WIND       PRES   REMARKS
ADRIAN         LGT RAIN  49  49 100 SW7       29.97S FOG
ALMA           MIX PCPN  38  38 100 S10       29.87S VSB 1/2 WCI  32
ANN ARBOR      LGT RAIN  54  54 100 S8        29.95S
BAD AXE        LGT RAIN  47  47 100 SW6       29.90R VSB 1/2
CARO           RAIN      49  49  99 CALM      29.88R
DETROIT CITY   LGT RAIN  55  54  96 S7        29.96F FOG
DETROIT        RAIN      54  53  97 S8        29.97S VSB 3/4
FLINT          LGT RAIN  55  54  96 S10       29.91S
GROSSE ILE     RAIN      47  46  98 S6        29.97R
HILLSDALE      LGT RAIN  54  52  94 S10       29.94S
HOWELL         RAIN      56  55  95 S12       29.92F

CITY           SKY/WX    TMP DP  RH WIND       PRES   REMARKS
JACKSON        LGT RAIN  56  55  97 S9        29.93F
LAMBERTVILLE   CLOUDY    61  55  78 SW8G17    29.97R
LANSING        HVY RAIN  56  56 100 S9        29.91S FOG
LAPEER         LGT RAIN  55  55  98 SW14      29.92R
MASON          HVY RAIN  57  53  88 S6        29.92R
MONROE         CLOUDY    58  54  84 SW8       29.96S
MT. CLEMENS    LGT RAIN  54  54 100 S8        29.95F FOG
PONTIAC        LGT RAIN  55  55 100 S9        29.94S
PORT HOPE        N/A     35  33  92 CALM      29.87S
PORT HURON     RAIN      54  52  94 S8        29.97S
TRI CITIES     LGT RAIN  37  36  96 CALM      29.88R FOG
MIDLAND        RAIN      36  36 100 CALM      29.86F
TROY           LGT RAIN  56  55  96 S6        29.97F
SAGINAW HB     LGT RAIN  36  36 100 CALM      29.87S
$$
MIZ043>046-050>051-056>058-064>065-071>073-077>080-201100-
SOUTHWEST LOWER MICHIGAN

CITY           SKY/WX    TMP DP  RH WIND       PRES   REMARKS
BATTLE CREEK   LGT RAIN  57  56  96 S14       29.90S
BENTON HARBOR  RAIN      60  57  89 S15       29.87R FOG
BIG RAPIDS     LGT SNOW  37  36  93 N6        29.82S WCI  33
COLDWATER      LGT RAIN  57  57 100 S7G21     29.91F
HOLLAND        LGT RAIN  60  59  96 SW20      29.84S
GRAND RAPIDS   RAIN      57  32  38 S10       29.85S
IONIA          RAIN      55  55 100 S12       29.86S
KALAMAZOO      LGT RAIN  56  55  97 S9        29.90R FOG
LUDINGTON      FOG       44  44 100 S6        29.77F VSB 3/4
MARSHALL       RAIN      55  55  97 S7        29.91F
MOUNT PLEASANT LGT RAIN  37  36  96 CALM      29.85F VSB 1
MUSKEGON       LGT RAIN  57  55  93 S18G25    29.81F
SOUTH HAVEN    RAIN      60  58  93 S9G16     29.86S
$$
MIZ016>042-201100-
NORTHERN LOWER MICHIGAN

CITY           SKY/WX    TMP DP  RH WIND       PRES   REMARKS
ALPENA         CLOUDY    31  31 100 E12       29.93S FOG     WCI  22
BEAVER ISLAND  CLOUDY    29  28  94 E15G21    29.83F FOG     WCI  18
BELLAIRE       CLOUDY    36  36 100 CALM      29.82F FOG
CADILLAC       LGT RAIN  35  35  99 E3        29.80F
CHARLEVOIX     CLOUDY    34  34 100 E15       29.85F FOG     WCI  25
FRANKFORT      CLOUDY    44  44 100 SE3       29.77S FOG
GAYLORD        MIX PCPN  32  32 100 E5        29.84F FOG     WCI  27
GRAYLING       LGT RAIN  34  34 100 E7        29.84F FOG     WCI  28
HARBOR SPRINGS LGT SNOW  31  30  99 E10       29.86S WCI  22
HOUGHTON LAKE  LGT RAIN  36  35  96 E5        29.84S FOG     WCI  32
MANISTEE       LGT RAIN  44  44 100 VRB5      29.77F VSB 1
OSCODA         LGT SNOW  33  33  98 N7        29.89S WCI  27
PELLSTON       FRZ RAIN  29  28  96 E13G21    29.90R FOG     WCI  19
ROGERS CITY    CLOUDY    29  28  96 E9        29.94F FOG     WCI  21
TRAVERSE CITY  CLOUDY    39  38  96 CALM      29.79F FOG
$$
MIZ007>008-015-201100-
EASTERN UPPER MICHIGAN

CITY           SKY/WX    TMP DP  RH WIND       PRES   REMARKS
KINROSS        CLOUDY    20  18  92 E12       29.93S WCI   8
MACKINAC ISLAN CLOUDY    26  25  96 E15G36    29.89F WCI  14
NEWBERRY       CLOUDY    20  19  97 E13       29.88F FOG     WCI   7
S. S. MARIE    CLOUDY    18  16  92 NE12      29.93F FOG     WCI   5
MUNISING         N/A     22  22 100 NE7       29.88F WCI  13
$$
MIZ004>006-011>014-085-201100-
CENTRAL UPPER MICHIGAN

CITY           SKY/WX    TMP DP  RH WIND       PRES   REMARKS
MANISTIQUE     CLOUDY    24  22  94 NE6       29.84F FOG     WCI  17
ESCANABA       LGT SNOW  24  23  96 N9G16     29.84F FOG     WCI  14
MENOMINEE      CLOUDY    29  28  96 NE13      29.81  FOG     WCI  19
SAWYER-GWINN   LGT SNOW  22  20  93 NE8       29.83F WCI  13
$$
MIZ001>003-009>011-084-201100-
WESTERN UPPER MICHIGAN

CITY           SKY/WX    TMP DP  RH WIND       PRES   REMARKS
IRON MOUNTAIN  CLOUDY    24  21  88 NE3       29.79F FOG
HOUGHTON       FRZ RAIN  21  17  84 E15G24    29.85F FOG     WCI   8
COPPER HARBOR    N/A     22  19  89 SE8       29.92F WCI  12
IRONWOOD       CLOUDY    16  14  92 NE6       29.83F FOG     WCI   7
$$

ABBREVIATIONS USED IN REMARKS
   TC - TEMPERATURE IN CELSIUS
  WCI - WIND CHILL INDEX
   HX - HEAT INDEX
  VSB - VISIBILITY





USA.gov is the U.S. government's official web portal to all federal, state and local government web resources and services.